Regional Weather Roundup
Issued by NWS

Home | Current Version | Previous Version | Text Only | Print | Product List | Glossary On
Versions: 1 2 3 4 5 6 7 8 9 10 11 12 13 14 15 16 17 18 19 20 21 22 23 24 25 26 27 28 29 30 31 32 33 34 35 36 37 38 39 40 41 42 43 44 45 46 47 48 49 50
000
ASUS46 KPQR 200210
RWROR

OREGON REGIONAL WEATHER ROUNDUP
NATIONAL WEATHER SERVICE PORTLAND OR
700 PM PDT FRI SEP 19 2014

NOTE: "FAIR" INDICATES FEW OR NO CLOUDS BELOW 12,000 FEET WITH
NO SIGNIFICANT WEATHER AND/OR OBSTRUCTIONS TO VISIBILITY.

ORZ001>013-200300-
NORTHWEST OREGON


CITY           SKY/WX    TMP DP  RH WIND       PRES   REMARKS
ASTORIA        CLEAR     64  59  83 NW12      30.06F
NEWPORT        CLEAR     63  57  82 N9        30.05F
PORTLAND       PTCLDY    77  57  50 NW7       30.00F
VANCOUVER WA   CLEAR     77  55  46 NW6       30.00F
SCAPPOOSE      CLEAR     76  56  49 NW5       30.00F
HILLSBORO      CLEAR     76  56  49 N6        30.01S
AURORA         CLEAR     77  55  46 NE8       30.01F
MCMINNVILLE    CLEAR     77  56  48 NE8       30.00F
SALEM          CLEAR     78  51  38 NE8       29.99S
CORVALLIS      CLEAR     79  50  36 N7        30.00F
EUGENE         PTCLDY    78  43  28 N14       29.98F
$$

ORZ021-028-200300-
SOUTHWEST OREGON


CITY           SKY/WX    TMP DP  RH WIND       PRES   REMARKS
NORTH BEND     CLEAR     64  57  77 N14G22    29.99S
BROOKINGS      CLEAR     83  61  47 CALM      29.84R
ROSEBURG       CLEAR     82  50  32 N9        29.95R
SEXTON SUMMIT  CLEAR     64  50  60 N12G21    30.05F
MEDFORD        CLEAR     87  53  31 NW7       29.90R
$$

ORZ009-041-200300-
COLUMBIA GORGE


CITY           SKY/WX    TMP DP  RH WIND       PRES   REMARKS
TROUTDALE      CLEAR     78  55  44 CALM      29.99S
THE DALLES     CLEAR     79  54  41 NW12G21   29.94S
$$

ORZ029>031-042>050-061>064-200300-
EASTERN OREGON


CITY           SKY/WX    TMP DP  RH WIND       PRES   REMARKS
REDMOND        CLEAR     75  43  31 N6        30.05S
BEND           CLEAR     73  45  35 N8        30.08S
KLAMATH FALLS  CLEAR     76  41  28 NW6       30.04F
LAKEVIEW       CLEAR     72  39  30 N14       30.11R
HERMISTON      CLEAR     78  48  34 CALM      29.95S
PENDLETON      CLEAR     76  44  32 NW5       29.99S
JOHN DAY       CLEAR     73  42  32 N5        30.08S
MEACHAM        CLEAR     64  44  48 CALM      30.11S
LA GRANDE      CLEAR     72  41  33 N9        30.04S
BAKER CITY     CLEAR     65  45  48 NW8       30.07S
BURNS          CLEAR     74  41  30 N9        30.08R
ROME             N/A     76  40  27 NE8       30.05S
ONTARIO        CLEAR     76  47  35 SE5       29.99S
$$



USA.gov is the U.S. government's official web portal to all federal, state and local government web resources and services.